Location: Piedmont
(45.8748°N, 74.1254°W)
Time: 22:34:58
(UTC+00:00)

N. Korean satellite - Visible Passes

Search period start: 02 December 2021 00:00
Search period end: 12 December 2021 00:00
Orbit: 447 x 495 km, 97.3° (Epoch: 02 December)

Date Brightness Start Highest point End Pass type
(mag) Time Alt. Az. Time Alt. Az. Time Alt. Az.
02 Dec 6.3 10:30:51 10° N 10:34:13 62° WNW 10:37:32 10° SSW visible
03 Dec 7.1 10:02:23 10° NNE 10:05:43 52° E 10:09:00 10° S visible
03 Dec 8.4 11:37:29 10° NW 11:38:27 11° WNW 11:39:26 10° W visible
03 Dec 9.6 22:12:26 10° SW 22:15:05 20° W 22:17:44 10° NW visible
04 Dec 8.9 09:34:19 10° NE 09:37:05 23° E 09:39:49 10° SSE visible
04 Dec 7.6 11:07:31 10° NNW 11:10:12 22° WNW 11:12:52 10° WSW visible
04 Dec 8.0 21:43:04 10° S 21:46:27 43° W 21:49:48 10° NNW visible
05 Dec 9.9 09:07:35 10° ENE 09:08:20 11° E 09:09:04 10° ESE visible
05 Dec 6.5 10:38:32 10° N 10:41:50 48° WNW 10:45:05 10° SSW visible
06 Dec 6.6 10:09:56 10° NNE 10:13:19 68° E 10:16:41 10° S visible
06 Dec 9.7 22:20:29 10° SW 22:22:45 16° W 22:24:59 10° NW visible
07 Dec 8.5 09:41:44 10° NE 09:44:42 28° E 09:47:39 10° SSE visible
07 Dec 7.8 11:15:19 10° NNW 11:17:43 18° WNW 11:20:06 10° WSW visible
07 Dec 8.5 21:50:49 10° SSW 21:54:02 34° W 21:57:15 10° NNW visible
08 Dec 9.7 09:14:16 10° ENE 09:15:57 13° E 09:17:38 10° ESE visible
08 Dec 6.8 10:46:09 10° N 10:49:20 38° WNW 10:52:30 10° SW visible
09 Dec 6.3 10:17:26 10° NNE 10:20:50 86° ESE 10:24:13 10° SSW visible
09 Dec 9.8 22:28:37 10° WSW 22:30:19 13° W 22:32:00 10° WNW visible
10 Dec 8.0 09:49:04 10° NNE 09:52:12 35° E 09:55:21 10° SSE visible
10 Dec 8.3 11:23:05 10° NNW 11:26:08 14° W 11:27:10 10° WSW visible
10 Dec 8.9 21:58:31 10° SSW 22:01:33 27° W 22:04:33 10° NW visible
11 Dec 9.4 09:23:51 16° E 09:23:51 16° E 09:25:39 10° SE visible
11 Dec 7.7 10:53:42 10° N 10:57:58 24° WSW 10:59:47 10° SW visible
